Lexington Weather

Lexington, Massachusetts, USA

70°F
8/17/2022 5:51pm 
  • Lexington Conditions: Overcast
  • Temperature: 70.2°F / 21.2°CColder 0.7°F than last hour.
  • Dew Point: 59.2°FIncreased 1.5°Fsince last hour.
  • Relative Humidity: 68%Increased 5.0% since last hour.
  • Wind: Calm, 10-min avg: Calm, gust: 1 mph
  • Barometer: 29.86 inFalling 0.02  inHg/hr Falling Slowly
  • Visibility: 10 miles
  • Rain Today: 0.00 in
  •   

Regional Weather Roundup
for Boston, MA

        
000
ASUS41 KBOX 140010
RWRBOX

REGIONAL WEATHER ROUNDUP
NATIONAL WEATHER SERVICE BOSTON/NORTON MA
800 PM EDT SAT AUG 13 2022

NOTE:  "FAIR" INDICATES FEW OR NO CLOUDS BELOW 12,000 FEET WITH NO 
SIGNIFICANT WEATHER AND/OR OBSTRUCTIONS TO VISIBILITY.

MAZALL-140100-
EASTERN MASSACHUSETTS
  
CITY           SKY/WX    TMP DP  RH WIND       PRES   REMARKS
BOSTON         PTCLDY    65  58  78 SE3       30.06R                  
6HR MIN TEMP:  65; 6HR MAX TEMP:  73;                                

BEVERLY        CLEAR     66  57  72 CALM      30.05R                  
LAWRENCE       CLOUDY    71  54  54 E3        30.07R                  
BEDFORD        CLOUDY    71  56  58 SE7       30.04R                  
BLUE HILL      NOT AVBL                                               
NORWOOD        CLOUDY    70  54  56 CALM      30.05R                  
MARSHFIELD     CLEAR     64  59  82 CALM      30.05S                  
PLYMOUTH       CLEAR     66  57  72 CALM      30.06R                  
TAUNTON          N/A    N/A N/A N/A MISG      30.04S                  
NEW BEDFORD    MOCLDY    67  57  70 NE5       30.04R                  
$$

MAZALL-140100-
CAPE COD AND THE ISLANDS
  
CITY           SKY/WX    TMP DP  RH WIND       PRES   REMARKS
FALMOUTH       CLEAR     64  61  88 CALM      30.05R                  
HYANNIS        PTCLDY    66  61  84 N5        30.03R                  
CHATHAM        CLEAR     68  61  78 NE3       30.04S                  
NANTUCKET      CLEAR     67  63  87 N6        30.04R                  
MARTHAS VNYRD  CLEAR     65  57  75 N5        30.04R                  
$$
 
MAZALL-140100-
CENTRAL AND WESTERN MASSACHUSETTS
  
CITY           SKY/WX    TMP DP  RH WIND       PRES   REMARKS
WORCESTER      MOCLDY    67  52  58 NW6       30.08R                  
6HR MIN TEMP:  67; 6HR MAX TEMP:  75;                                

FITCHBURG      CLOUDY    71  48  43 N6        30.06S                  
ORANGE         MOCLDY    69  51  52 CALM      30.08R                  
SPRINGFIELD    MOCLDY    69  51  51 N7        30.04R                  
WESTFIELD      CLOUDY    72  52  49 NW5       30.06R                  
NORTH ADAMS    MOCLDY    66  57  72 CALM      30.08R                  
PITTSFIELD     MOCLDY    66  50  56 CALM      30.08S                  
$$
 
RIZALL-140100-
RHODE ISLAND
  
CITY           SKY/WX    TMP DP  RH WIND       PRES   REMARKS
PROVIDENCE     PTCLDY    70  57  63 SE3       30.05R                  
6HR MIN TEMP:  70; 6HR MAX TEMP:  81;                                

NEWPORT        MOCLDY    68  55  63 CALM      30.05R                  
BLOCK ISLAND   CLEAR     68  56  65 S6        30.06R                  
SMITHFIELD     PTCLDY    65  56  72 CALM      30.06S                  
WESTERLY       CLEAR     70  59  68 CALM      30.05R                  
$$
 
CTZALL-140100-
CONNECTICUT
  
CITY           SKY/WX    TMP DP  RH WIND       PRES   REMARKS
BRADLEY INTL   MOCLDY    71  52  50 NW6       30.06R                  
6HR MIN TEMP:  71; 6HR MAX TEMP:  79;                                

HARTFORD       PTCLDY    74  50  42 N6        30.05R                  
BRIDGEPORT     CLEAR     74  54  49 SW3       30.06R                  
DANBURY        CLEAR     73  48  41 CALM      30.08R                  
GROTON         CLEAR     73  50  44 N5        30.04R                  
NEW HAVEN      CLOUDY    74  54  49 N3        30.06R                  
CHESTER        FAIR      70  50  49 CALM      30.07R                  
MERIDEN        CLOUDY    73  49  42 CALM      30.05R                  
WILLIMANTIC    MOCLDY    70  51  51 NW3       30.06R                  
OXFORD         MOCLDY    67  52  58 N5        30.09R                  
$$

MEZ002-015-021-024-NHZ003-005-008-011-012-014-VTZ005-008-140100-
NORTHERN NEW ENGLAND
  
CITY           SKY/WX    TMP DP  RH WIND       PRES   REMARKS
PORTLAND ME    MOCLDY    68  54  60 SW3       30.04S                  
6HR MIN TEMP:  68; 6HR MAX TEMP:  75;                                

BANGOR ME      CLOUDY    71  56  58 NW8       30.02S                  
CONCORD NH     CLOUDY    70  52  52 NW6       30.06R                  
MANCHESTER NH  MOCLDY    75  50  41 NW13      30.04R                  
NASHUA NH      MOCLDY    72  51  47 NW6       30.06R                  
PORTSMOUTH NH  MOCLDY    65  54  69 S5        30.04S                  
JAFFREY NH     CLOUDY    67  53  61 CALM      30.09S                  
KEENE NH       CLOUDY    66  58  75 CALM        N/A                   
BURLINGTON VT  PTCLDY    72  49  44 NE3       30.08R                  
MT. WASHINGTON FOG       45  43  93 NW8         N/A  VSB 1/8          
$$

NYZ052-076-140100-
EASTERN NEW YORK
  
CITY           SKY/WX    TMP DP  RH WIND       PRES   REMARKS
ALBANY         PTCLDY    74  49  41 CALM      30.07R                  
6HR MIN TEMP:  73; 6HR MAX TEMP:  79;                                

NEW YORK CITY  PTCLDY    76  46  34 E8        30.05R                  
6HR MIN TEMP:  75; 6HR MAX TEMP:  80;                                

$$
 
ANZALL-140100-
MARINE OBSERVATIONS
  
STATION/POSITION TIME  TEMP    WIND        PRES    VSBY  WAVE
                       AIR SEA DIR/SP/G                  HT/PER
                 (UTC) (F)     (DEG/KT/KT) (MB)    (MI)  (FT/S)
BOSTON BUOY      NOT AVBL
BUZZARDS BAY     NOT AVBL
NANTUCKET SOUND  NOT AVBL
MASS BAY-STELLWA NOT AVBL
ISLE OF SHOALS   NOT AVBL
S OF BLOCK IS    NOT AVBL
$$

......................KEY.........................
  SKY/WX - SKY CONDITION/PRESENT WEATHER
  TMP    - TEMPERATURE IN FAHRENHEIT
  DWPT   - DEWPOINT IN FAHRENHEIT
  RH     - RELATIVE HUMIDITY IN PERCENT
  WIND   - DIRECTION AND SPEED IN MPH
  PRES   - MEAN SEA LEVEL PRESSURE IN INCHES OF HG
  WCI    - WIND CHILL INDEX
  VSB    - VISIBILITY IN MILES
  HX     - HEAT INDEX
  TC     - TEMPERATURE IN CELSIUS
  VRB    - VARIABLE WIND DIRECTION
  N/A    - NOT AVAILABLE
  
      

Other recent Regional Weather Roundups

Wed Aug 17, 5:10pm

Wed Aug 17, 4:10pm

Wed Aug 17, 3:10pm

Wed Aug 17, 2:10pm

Wed Aug 17, 1:10pm

Wed Aug 17, 12:10pm

Wed Aug 17, 11:10am

Wed Aug 17, 10:10am

Wed Aug 17, 9:10am

Wed Aug 17, 8:10am

Wed Aug 17, 7:10am

Wed Aug 17, 6:10am

Wed Aug 17, 5:10am

Wed Aug 17, 4:10am

Wed Aug 17, 3:10am

Wed Aug 17, 2:10am

Wed Aug 17, 1:10am

Wed Aug 17, 12:10am

Tue Aug 16, 11:10pm

Tue Aug 16, 10:10pm

Tue Aug 16, 9:10pm

Tue Aug 16, 8:10pm

Tue Aug 16, 7:10pm

Tue Aug 16, 6:10pm

Tue Aug 16, 5:10pm

Tue Aug 16, 4:10pm

Tue Aug 16, 3:10pm

Tue Aug 16, 2:10pm

Tue Aug 16, 1:10pm

Tue Aug 16, 12:10pm

Tue Aug 16, 11:10am

Tue Aug 16, 10:10am

Tue Aug 16, 9:10am

Tue Aug 16, 8:10am

Tue Aug 16, 7:10am

Tue Aug 16, 6:10am

Tue Aug 16, 5:10am

Tue Aug 16, 4:10am

Tue Aug 16, 3:10am

Tue Aug 16, 2:10am

Tue Aug 16, 1:10am

Tue Aug 16, 12:10am

Mon Aug 15, 11:10pm

Mon Aug 15, 10:10pm

Mon Aug 15, 9:10pm

Mon Aug 15, 8:10pm

Mon Aug 15, 7:10pm

Mon Aug 15, 6:10pm

Mon Aug 15, 5:10pm

Mon Aug 15, 4:10pm

Mon Aug 15, 3:10pm

Mon Aug 15, 2:10pm

Mon Aug 15, 1:10pm

Mon Aug 15, 12:10pm

Mon Aug 15, 11:10am

Mon Aug 15, 10:10am

Mon Aug 15, 9:10am

Mon Aug 15, 8:10am

Mon Aug 15, 7:10am

Mon Aug 15, 6:10am

Mon Aug 15, 5:10am

Mon Aug 15, 4:10am

Mon Aug 15, 3:10am

Mon Aug 15, 2:10am

Mon Aug 15, 1:10am

Mon Aug 15, 12:10am

Sun Aug 14, 11:10pm

Sun Aug 14, 10:10pm

Sun Aug 14, 9:10pm

Sun Aug 14, 8:10pm

Sun Aug 14, 7:10pm

Sun Aug 14, 6:10pm

Sun Aug 14, 5:10pm

Sun Aug 14, 4:10pm

Sun Aug 14, 3:10pm

Sun Aug 14, 2:10pm

Sun Aug 14, 1:10pm

Sun Aug 14, 12:10pm

Sun Aug 14, 11:10am

Sun Aug 14, 10:10am

Sun Aug 14, 9:10am

Sun Aug 14, 8:10am

Sun Aug 14, 7:10am

Sun Aug 14, 6:10am

Sun Aug 14, 5:10am

Sun Aug 14, 4:10am

Sun Aug 14, 3:10am

Sun Aug 14, 2:10am

Sun Aug 14, 1:10am

Sun Aug 14, 12:10am

Sat Aug 13, 11:10pm

Sat Aug 13, 10:10pm

Sat Aug 13, 9:10pm

Sat Aug 13, 7:10pm

Sat Aug 13, 6:10pm

Sat Aug 13, 5:10pm

Sat Aug 13, 4:10pm

Sat Aug 13, 3:10pm

Sat Aug 13, 2:10pm

Sat Aug 13, 1:10pm

Sat Aug 13, 12:10pm

Sat Aug 13, 11:10am

Sat Aug 13, 10:10am

Sat Aug 13, 9:10am

Sat Aug 13, 8:10am

Sat Aug 13, 7:10am

Sat Aug 13, 6:10am

Sat Aug 13, 5:10am

Sat Aug 13, 4:10am

Sat Aug 13, 3:10am

Sat Aug 13, 2:10am

Sat Aug 13, 1:10am

Sat Aug 13, 12:10am

Fri Aug 12, 11:10pm

Fri Aug 12, 10:10pm

Fri Aug 12, 9:10pm

Fri Aug 12, 8:10pm

Fri Aug 12, 7:10pm

Fri Aug 12, 6:10pm

Fri Aug 12, 5:10pm

Fri Aug 12, 4:10pm

Fri Aug 12, 3:10pm

Fri Aug 12, 2:10pm

Fri Aug 12, 1:10pm

Fri Aug 12, 12:10pm

Fri Aug 12, 11:10am

Fri Aug 12, 10:10am

Fri Aug 12, 9:10am

Fri Aug 12, 8:10am

Fri Aug 12, 7:10am

Fri Aug 12, 6:10am

Fri Aug 12, 5:10am

Fri Aug 12, 4:10am

Fri Aug 12, 3:10am

Fri Aug 12, 2:10am

Fri Aug 12, 1:10am

Fri Aug 12, 12:10am

Thu Aug 11, 11:10pm

Thu Aug 11, 10:10pm

Thu Aug 11, 9:10pm

Thu Aug 11, 8:10pm

Thu Aug 11, 7:10pm

Thu Aug 11, 6:10pm

Thu Aug 11, 5:10pm

Thu Aug 11, 4:10pm

Thu Aug 11, 3:10pm

Thu Aug 11, 2:10pm

Thu Aug 11, 1:10pm

Thu Aug 11, 12:10pm

Thu Aug 11, 11:10am

Thu Aug 11, 10:10am

Thu Aug 11, 9:10am

Thu Aug 11, 8:10am

Thu Aug 11, 7:10am

Thu Aug 11, 6:10am

Thu Aug 11, 5:10am

Thu Aug 11, 4:10am

Thu Aug 11, 3:10am

Thu Aug 11, 2:10am

Thu Aug 11, 1:10am

Thu Aug 11, 12:10am

Wed Aug 10, 11:10pm

Wed Aug 10, 10:10pm

Wed Aug 10, 9:10pm

Wed Aug 10, 8:10pm

Wed Aug 10, 7:10pm

Wed Aug 10, 6:10pm

Meta data:

ID: 7da74ffa-0cc9-41a4-8692-b3989772a9b0
Link: https://api.weather.gov/products/7da74ffa-0cc9-41a4-8692-b3989772a9b0